Tracking 22879 objects as of 21-Apr-2021
HD Live streaming from Space Station
objects crossing your sky now

DELTA 1 DEB

Track DELTA 1 DEB now!
10-day predictions


NORAD ID: 7166
Int'l Code: 1973-086EE
Perigee: 1,497.6 km
Apogee: 1,521.0 km
Inclination: 102.1 °
Period: 116.0 minutes
Semi major axis: 7880 km
RCS: 0.0457 m2 (small)
Launch date: November 6, 1973
Source: United States (US)
Launch site: AIR FORCE WESTERN TEST RANGE (AFWTR)

Note: This is SATELLITE DEBRIS
aabbcc
Your satellite tracking list
Your tracking list is empty




NASA's NSSDC Master Catalog

Two Line Element Set (TLE):
1 07166U 73086EE  21110.84819734  .00000032  00000-0  56975-3 0  9993
2 07166 102.0795  86.9414 0014867 146.8215 278.5950 12.41045652146941
Source of the keplerian elements: AFSPC